カタログに戻る

STARLINK-32048

運用中通信VLEO
NORAD 60156·PAYLOAD·🇺🇸 United States

打ち上げ Jun 27, 2024 から Cape Canaveral Space Force Station

Loading…

次のパス (今後24時間)

TLE

最新Source: CelesTrak SupGP

元期: Sep 14, 2026, 15:09 UTC

1 60156C 24120X   26257.63173611  .00062968  00000+0  18622-2 0  2575
2 60156  53.1577 159.0295 0001344  99.4103 138.8341 15.34327773    18

AllMySatでSTARLINK-32048をリアルタイム追跡

Download on the App Store